Location: Alvediston
(51.0078°N, 2.0364°W)
Time: 06:06:19
(UTC+00:00)

STARLINK-1046 - Pass Details

Date: 27 February 2020
Orbit: 549 x 550 km, 53.0° (Epoch: 28 March)

Event Time Altitude Azimuth Distance (km) Brightness Sun altitude
Rises 19:58:19 0° 247° (WSW) 2,713 8.0 -21.7°
Reaches altitude 10° 20:00:33 10° 247° (WSW) 1,822 7.0 -22.0°
Enters shadow 20:04:39 83° 175° (S) 560 3.5 -22.6°
